Location: PSU-Greenbush Astrophysical Observatory
(37.5140°N, 94.9880°W)
Time: 20:59:45
(UTC-05:00)

BEESAT - Pass Details

Date: 01 March 2020
Orbit: 700 x 709 km, 98.6° (Epoch: 08 April)

Event Time Altitude Azimuth Distance (km) Brightness Sun altitude
Rises 19:11:07 0° 357° (N) 3,093 ? -12.0°
Reaches altitude 10° 19:13:49 10° 342° (NNW) 2,170 ? -12.6°
Maximum altitude 19:17:22 21° 294° (WNW) 1,539 ? -13.3°
Drops below altitude 10° 19:20:53 10° 245° (WSW) 2,161 ? -14.0°
Sets 19:23:35 0° 230° (SW) 3,075 ? -14.5°
